Location: Berg
(47.2344°N, 9.5296°E)
Time: 18:09:39
(UTC+00:00)

N. Korean satellite - Pass Details

Date: 24 September 2021
Orbit: 450 x 495 km, 97.3° (Epoch: 15 October)

Event Time Altitude Azimuth Distance (km) Brightness Sun altitude
Rises 03:58:30 0° 24° (NNE) 2,521 10.8 -13.1°
Reaches altitude 10° 04:00:51 10° 39° (NE) 1,647 10.1 -12.7°
Maximum altitude 04:03:45 23° 95° (E) 1,045 9.2 -12.2°
Drops below altitude 10° 04:06:40 10° 150° (SSE) 1,657 9.5 -11.7°
Sets 04:09:01 0° 165° (SSE) 2,540 10.3 -11.3°
